This demonstration page uses our WeatherBlox Daily Observations layout. Learn more.

Left ArrowRight Arrow

Hourly Observations for May 9, 2022

Temp ( °F °C ) Dew Point ( °F °C ) Humidity (%) Winds ( mph kmh ) Pressure ( in mb ) Visibility ( mi km ) Precip ( " mm )
12:18 am 00:18 Partly Cloudy 68 20 61 16.1 78 78 SE 17 28 29.65 1004 10 16 0.00 0.00
12:52 am 00:52 Clear 68 20 61 16.1 78 78 SE 17 28 29.65 1004 10 16 0.00 0.00
1:52 am 01:52 Clear 67 19.4 62 16.7 84 84 SE 16 26 29.64 1004 10 16 0.00 0.00
2:52 am 02:52 Clear 67 19.4 63 17.2 87 87 SSE 17 28 29.62 1003 10 16 0.00 0.00
3:52 am 03:52 Clear 67 19.4 64 17.8 91 91 SSE 15 24 29.62 1003 10 16 0.00 0.00
4:52 am 04:52 Clear 68 20 65 18.3 90 90 SE 14 22 29.62 1003 10 16 0.00 0.00
5:52 am 05:52 Clear 67 19.4 65 18.3 93 93 SSE 16 26 29.62 1003 10 16 0.00 0.00
6:52 am 06:52 Sunny 67 19.4 65 18.3 93 93 SSE 21 33 29.64 1004 8 13 0.00 0.00
7:52 am 07:52 Sunny 70 21.1 66 18.9 87 87 SSE 17 28 29.67 1005 9 14 0.00 0.00
8:52 am 08:52 Mostly Sunny 74 23.3 68 20 82 82 S 20 31 29.68 1005 10 16 0.00 0.00
9:52 am 09:52 Sunny 77 25 68 20 74 74 S 18 30 29.69 1005 10 16 0.00 0.00
10:52 am 10:52 Sunny 80 26.7 69 20.6 69 69 S 18 30 29.69 1005 10 16 0.00 0.00
11:52 am 11:52 Sunny 83 28.3 67 19.4 59 59 S 26 43 29.69 1005 9 14 0.00 0.00
12:52 pm 12:52 Sunny 85 29.4 68 20 57 57 S 24 39 29.69 1005 10 16 0.00 0.00
1:52 pm 13:52 Sunny 86 30 68 20 55 55 S 22 35 29.69 1005 9 14 0.00 0.00
2:52 pm 14:52 Sunny 86 30 69 20.6 57 57 S 22 35 29.70 1006 10 16 0.00 0.00
3:52 pm 15:52 Sunny 87 30.6 70 21.1 57 57 SSW 22 35 29.70 1006 10 16 0.00 0.00
4:52 pm 16:52 Sunny 86 30 69 20.6 57 57 S 23 37 29.69 1006 10 16 0.00 0.00
5:52 pm 17:52 Sunny 85 29.4 70 21.1 61 61 S 18 30 29.71 1006 9 14 0.00 0.00
6:52 pm 18:52 Sunny 83 28.3 70 21.1 65 65 S 15 24 29.72 1006 9 14 0.00 0.00
7:52 pm 19:52 Sunny 81 27.2 69 20.6 67 67 S 20 31 29.74 1007 9 14 0.00 0.00
8:52 pm 20:52 Partly Cloudy 80 26.7 69 20.6 69 69 S 16 26 29.77 1008 10 16 0.00 0.00
9:52 pm 21:52 Clear 78 25.6 69 20.6 74 74 S 12 19 29.81 1010 10 16 0.00 0.00
10:52 pm 22:52 Cloudy 77 25 69 20.6 77 77 S 13 20 29.83 1010 10 16 0.00 0.00
11:52 pm 23:52 Mostly Clear 77 25 69 20.6 77 77 SSE 14 22 29.84 1010 10 16 0.00 0.00

Powered by AerisWeather